Time,TemperatureF,DewpointF,PressureIn,WindDirection,WindDirectionDegrees,WindSpeedMPH,WindSpeedGustMPH,Humidity,HourlyPrecipIn,Conditions,Clouds,dailyrainin,SolarRadiationWatts/m^2,SoftwareType,DateUTC
2013-11-07 00:42:00,48.0,40.0,-100.00,North,352,5.0,14.0,75,0.00,,,0.04,0.000000,,2013-11-07 06:42:00,
2013-11-07 00:52:00,48.0,40.0,-100.00,North,352,5.0,14.0,75,0.00,,,0.04,0.000000,,2013-11-07 06:52:00,
2013-11-07 01:02:00,48.0,40.0,-100.00,North,352,5.0,14.0,75,0.00,,,0.04,0.000000,,2013-11-07 07:02:00,
2013-11-07 01:42:00,46.0,40.0,-100.00,North,1,5.0,10.0,79,0.00,,,0.04,0.000000,,2013-11-07 07:42:00,
2013-11-07 01:52:00,46.0,40.0,-100.00,North,1,5.0,10.0,79,0.00,,,0.04,0.000000,,2013-11-07 07:52:00,
2013-11-07 02:02:00,46.0,40.0,-100.00,North,1,5.0,10.0,79,0.00,,,0.04,0.000000,,2013-11-07 08:02:00,
2013-11-07 02:22:00,45.0,39.0,-100.00,North,7,6.0,11.0,80,0.00,,,-99.99,0.000000,,2013-11-07 08:22:00,
2013-11-07 02:32:00,45.0,39.0,-100.00,North,7,6.0,11.0,80,0.00,,,-99.99,0.000000,,2013-11-07 08:32:00,
2013-11-07 02:42:00,45.0,39.0,-100.00,North,7,6.0,11.0,80,0.00,,,-99.99,0.000000,,2013-11-07 08:42:00,
2013-11-07 02:53:00,45.0,39.0,-100.00,North,7,6.0,11.0,80,0.00,,,-99.99,0.000000,,2013-11-07 08:53:00,
2013-11-07 03:02:00,45.0,39.0,-100.00,North,7,6.0,11.0,80,0.00,,,-99.99,0.000000,,2013-11-07 09:02:00,
2013-11-07 03:03:00,44.0,39.0,-100.00,North,10,5.0,14.0,83,0.00,,,0.04,0.000000,,2013-11-07 09:03:00,
2013-11-07 03:22:00,44.0,39.0,-100.00,North,10,5.0,14.0,83,0.00,,,0.04,0.000000,,2013-11-07 09:22:00,
2013-11-07 03:33:00,44.0,39.0,-100.00,North,10,5.0,14.0,83,0.00,,,0.04,0.000000,,2013-11-07 09:33:00,
2013-11-07 03:42:00,44.0,39.0,-100.00,North,10,5.0,14.0,83,0.00,,,0.04,0.000000,,2013-11-07 09:42:00,
2013-11-07 03:53:00,44.0,39.0,-100.00,North,10,5.0,14.0,83,0.00,,,0.04,0.000000,,2013-11-07 09:53:00,
2013-11-07 04:42:00,43.0,39.0,-100.00,North,7,6.0,13.0,85,0.00,,,0.04,0.000000,,2013-11-07 10:42:00,
2013-11-07 04:53:00,43.0,39.0,-100.00,North,7,6.0,13.0,85,0.00,,,0.04,0.000000,,2013-11-07 10:53:00,
2013-11-07 05:02:00,43.0,39.0,-100.00,North,7,6.0,13.0,85,0.00,,,0.04,0.000000,,2013-11-07 11:02:00,
2013-11-07 05:43:00,42.0,39.0,-100.00,North,7,5.0,11.0,88,0.00,,,0.04,0.000000,,2013-11-07 11:43:00,
2013-11-07 05:52:00,42.0,39.0,-100.00,North,7,5.0,11.0,88,0.00,,,0.04,0.000000,,2013-11-07 11:52:00,
2013-11-07 06:02:00,42.0,39.0,-100.00,North,7,5.0,11.0,88,0.00,,,0.04,0.000000,,2013-11-07 12:02:00,
2013-11-07 06:42:00,41.0,39.0,-100.00,North,0,4.0,9.0,91,0.00,,,0.04,0.000000,,2013-11-07 12:42:00,
2013-11-07 06:52:00,41.0,39.0,-100.00,North,0,4.0,9.0,91,0.00,,,0.04,0.000000,,2013-11-07 12:52:00,
2013-11-07 07:01:00,41.0,39.0,-100.00,North,0,4.0,9.0,91,0.00,,,0.04,0.000000,,2013-11-07 13:01:00,
2013-11-07 07:42:00,41.0,39.0,-100.00,North,2,5.0,8.0,91,0.00,,,0.04,8.000000,,2013-11-07 13:42:00,
2013-11-07 07:52:00,41.0,39.0,-100.00,North,2,5.0,8.0,91,0.00,,,0.04,8.000000,,2013-11-07 13:52:00,
2013-11-07 08:02:00,41.0,39.0,-100.00,North,2,5.0,8.0,91,0.00,,,0.04,8.000000,,2013-11-07 14:02:00,
2013-11-07 08:42:00,45.0,39.0,-100.00,NNE,22,6.0,16.0,79,0.00,,,0.04,164.000000,,2013-11-07 14:42:00,
2013-11-07 08:52:00,45.0,39.0,-100.00,NNE,22,6.0,16.0,79,0.00,,,0.04,164.000000,,2013-11-07 14:52:00,
2013-11-07 09:02:00,45.0,39.0,-100.00,NNE,22,6.0,16.0,79,0.00,,,0.04,164.000000,,2013-11-07 15:02:00,
2013-11-07 09:03:00,50.0,40.0,-100.00,NNE,28,7.0,16.0,69,0.00,,,0.04,373.000000,,2013-11-07 15:03:00,
2013-11-07 09:43:00,50.0,40.0,-100.00,NNE,28,7.0,16.0,69,0.00,,,0.04,373.000000,,2013-11-07 15:43:00,
2013-11-07 09:53:00,50.0,40.0,-100.00,NNE,28,7.0,16.0,69,0.00,,,0.04,373.000000,,2013-11-07 15:53:00,
2013-11-07 10:23:00,54.0,39.0,-100.00,North,7,7.0,14.0,57,0.00,,,0.04,567.000000,,2013-11-07 16:23:00,
2013-11-07 10:33:00,54.0,39.0,-100.00,North,7,7.0,14.0,57,0.00,,,0.04,567.000000,,2013-11-07 16:33:00,
2013-11-07 10:42:00,54.0,39.0,-100.00,North,7,7.0,14.0,57,0.00,,,0.04,567.000000,,2013-11-07 16:42:00,
2013-11-07 10:52:00,54.0,39.0,-100.00,North,7,7.0,14.0,57,0.00,,,0.04,567.000000,,2013-11-07 16:52:00,
2013-11-07 11:02:00,54.0,39.0,-100.00,North,7,7.0,14.0,57,0.00,,,0.04,567.000000,,2013-11-07 17:02:00,
2013-11-07 11:43:00,58.0,36.0,-100.00,NE,38,9.0,18.0,44,0.00,,,0.04,706.000000,,2013-11-07 17:43:00,
2013-11-07 12:02:00,58.0,36.0,-100.00,NE,38,9.0,18.0,44,0.00,,,0.04,706.000000,,2013-11-07 18:02:00,
2013-11-07 12:23:00,61.0,36.0,-100.00,NNE,31,9.0,17.0,40,0.00,,,0.00,780.000000,,2013-11-07 18:23:00,
2013-11-07 12:32:00,61.0,36.0,-100.00,NNE,31,9.0,17.0,40,0.00,,,0.00,780.000000,,2013-11-07 18:32:00,
2013-11-07 12:42:00,61.0,36.0,-100.00,NNE,31,9.0,17.0,40,0.00,,,0.00,780.000000,,2013-11-07 18:42:00,
2013-11-07 12:52:00,61.0,36.0,-100.00,NNE,31,9.0,17.0,40,0.00,,,0.00,780.000000,,2013-11-07 18:52:00,
2013-11-07 13:01:00,61.0,36.0,-100.00,NNE,31,9.0,17.0,40,0.00,,,0.00,780.000000,,2013-11-07 19:01:00,
2013-11-07 13:22:00,63.0,36.0,-100.00,NNE,20,9.0,20.0,37,0.00,,,0.00,772.000000,,2013-11-07 19:22:00,
2013-11-07 13:32:00,63.0,36.0,-100.00,NNE,20,9.0,20.0,37,0.00,,,0.00,772.000000,,2013-11-07 19:32:00,
2013-11-07 13:42:00,63.0,36.0,-100.00,NNE,20,9.0,20.0,37,0.00,,,0.00,772.000000,,2013-11-07 19:42:00,
2013-11-07 13:52:00,63.0,36.0,-100.00,NNE,20,9.0,20.0,37,0.00,,,0.00,772.000000,,2013-11-07 19:52:00,
2013-11-07 14:01:00,63.0,36.0,-100.00,NNE,20,9.0,20.0,37,0.00,,,0.00,772.000000,,2013-11-07 20:01:00,
2013-11-07 14:22:00,64.0,37.0,-100.00,NNE,16,9.0,18.0,36,0.00,,,0.00,695.000000,,2013-11-07 20:22:00,
2013-11-07 14:32:00,64.0,37.0,-100.00,NNE,16,9.0,18.0,36,0.00,,,0.00,695.000000,,2013-11-07 20:32:00,
2013-11-07 14:42:00,64.0,37.0,-100.00,NNE,16,9.0,18.0,36,0.00,,,0.00,695.000000,,2013-11-07 20:42:00,
2013-11-07 14:52:00,64.0,37.0,-100.00,NNE,16,9.0,18.0,36,0.00,,,0.00,695.000000,,2013-11-07 20:52:00,
2013-11-07 15:02:00,64.0,37.0,-100.00,NNE,16,9.0,18.0,36,0.00,,,0.00,695.000000,,2013-11-07 21:02:00,
2013-11-07 15:03:00,64.0,37.0,-100.00,NNE,20,7.0,18.0,37,0.00,,,0.00,560.000000,,2013-11-07 21:03:00,
2013-11-07 15:22:00,64.0,37.0,-100.00,NNE,20,7.0,18.0,37,0.00,,,0.00,560.000000,,2013-11-07 21:22:00,
2013-11-07 15:34:00,64.0,37.0,-100.00,NNE,20,7.0,18.0,37,0.00,,,0.00,560.000000,,2013-11-07 21:34:00,
2013-11-07 15:43:00,64.0,37.0,-100.00,NNE,20,7.0,18.0,37,0.00,,,0.00,560.000000,,2013-11-07 21:43:00,
2013-11-07 15:54:00,64.0,37.0,-100.00,NNE,20,7.0,18.0,37,0.00,,,0.00,560.000000,,2013-11-07 21:54:00,
2013-11-07 16:03:00,64.0,37.0,-100.00,NE,42,8.0,16.0,36,0.00,,,0.00,366.000000,,2013-11-07 22:03:00,
2013-11-07 16:24:00,64.0,37.0,-100.00,NE,42,8.0,16.0,36,0.00,,,0.00,366.000000,,2013-11-07 22:24:00,
2013-11-07 16:33:00,64.0,37.0,-100.00,NE,42,8.0,16.0,36,0.00,,,0.00,366.000000,,2013-11-07 22:33:00,
2013-11-07 16:43:00,64.0,37.0,-100.00,NE,42,8.0,16.0,36,0.00,,,0.00,366.000000,,2013-11-07 22:43:00,
2013-11-07 16:53:00,64.0,37.0,-100.00,NE,42,8.0,16.0,36,0.00,,,0.00,366.000000,,2013-11-07 22:53:00,
2013-11-07 17:43:00,59.0,39.0,-100.00,North,7,7.0,16.0,47,0.00,,,0.00,123.000000,,2013-11-07 23:43:00,
2013-11-07 17:53:00,59.0,39.0,-100.00,North,7,7.0,16.0,47,0.00,,,0.00,123.000000,,2013-11-07 23:53:00,
2013-11-07 18:02:00,59.0,39.0,-100.00,North,7,7.0,16.0,47,0.00,,,0.00,123.000000,,2013-11-08 00:02:00,
2013-11-07 18:22:00,55.0,39.0,-100.00,NNE,18,3.0,13.0,55,0.00,,,0.00,5.000000,,2013-11-08 00:22:00,
2013-11-07 18:32:00,55.0,39.0,-100.00,NNE,18,3.0,13.0,55,0.00,,,0.00,5.000000,,2013-11-08 00:32:00,
2013-11-07 18:42:00,55.0,39.0,-100.00,NNE,18,3.0,13.0,55,0.00,,,0.00,5.000000,,2013-11-08 00:42:00,
2013-11-07 18:52:00,55.0,39.0,-100.00,NNE,18,3.0,13.0,55,0.00,,,0.00,5.000000,,2013-11-08 00:52:00,
2013-11-07 19:02:00,55.0,39.0,-100.00,NNE,18,3.0,13.0,55,0.00,,,0.00,5.000000,,2013-11-08 01:02:00,
2013-11-07 19:22:00,53.0,42.0,-100.00,North,359,1.0,4.0,67,0.00,,,0.00,0.000000,,2013-11-08 01:22:00,
2013-11-07 19:32:00,53.0,42.0,-100.00,North,359,1.0,4.0,67,0.00,,,0.00,0.000000,,2013-11-08 01:32:00,
2013-11-07 19:42:00,53.0,42.0,-100.00,North,359,1.0,4.0,67,0.00,,,0.00,0.000000,,2013-11-08 01:42:00,
2013-11-07 19:52:00,53.0,42.0,-100.00,North,359,1.0,4.0,67,0.00,,,0.00,0.000000,,2013-11-08 01:52:00,
2013-11-07 20:02:00,53.0,42.0,-100.00,North,359,1.0,4.0,67,0.00,,,0.00,0.000000,,2013-11-08 02:02:00,
2013-11-07 20:22:00,49.0,44.0,-100.00,SE,140,0.0,0.0,84,0.00,,,0.00,0.000000,,2013-11-08 02:22:00,
2013-11-07 20:32:00,49.0,44.0,-100.00,SE,140,0.0,0.0,84,0.00,,,0.00,0.000000,,2013-11-08 02:32:00,
2013-11-07 20:42:00,49.0,44.0,-100.00,SE,140,0.0,0.0,84,0.00,,,0.00,0.000000,,2013-11-08 02:42:00,
2013-11-07 20:52:00,49.0,44.0,-100.00,SE,140,0.0,0.0,84,0.00,,,0.00,0.000000,,2013-11-08 02:52:00,
2013-11-07 21:02:00,49.0,44.0,-100.00,SE,140,0.0,0.0,84,0.00,,,0.00,0.000000,,2013-11-08 03:02:00,
2013-11-07 21:03:00,48.0,45.0,-100.00,SW,227,0.0,2.0,89,0.00,,,0.00,0.000000,,2013-11-08 03:03:00,
2013-11-07 21:44:00,48.0,45.0,-100.00,SW,227,0.0,2.0,89,0.00,,,0.00,0.000000,,2013-11-08 03:44:00,
2013-11-07 21:55:00,48.0,45.0,-100.00,SW,227,0.0,2.0,89,0.00,,,0.00,0.000000,,2013-11-08 03:55:00,
2013-11-07 22:03:00,47.0,45.0,-100.00,North,351,0.0,2.0,93,0.00,,,0.00,0.000000,,2013-11-08 04:03:00,
2013-11-07 22:44:00,47.0,45.0,-100.00,North,351,0.0,2.0,93,0.00,,,0.00,0.000000,,2013-11-08 04:44:00,
2013-11-07 22:54:00,47.0,45.0,-100.00,North,351,0.0,2.0,93,0.00,,,0.00,0.000000,,2013-11-08 04:54:00,
2013-11-07 23:03:00,46.0,45.0,-100.00,ESE,106,0.0,2.0,95,0.00,,,0.00,0.000000,,2013-11-08 05:03:00,
2013-11-07 23:44:00,46.0,45.0,-100.00,ESE,106,0.0,2.0,95,0.00,,,0.00,0.000000,,2013-11-08 05:44:00,
2013-11-07 23:54:00,46.0,45.0,-100.00,ESE,106,0.0,2.0,95,0.00,,,0.00,0.000000,,2013-11-08 05:54:00,